CZ-6A DEB, 54280

Orbit data source: Space-Track

CZ-6A DEB, 54280 is space debris in SSO originally from a launch on Fri, 11 Nov 2022 UTC launched from the Taiyaun Space Center, China (TSC). Debris objects in space refer to the collection of defunct objects orbiting the Earth. Examples of debris include non-operational satellites, rocket bodies, and fragments generated from explosions, collisions, or faulty payload assembly.

Loading next visibility...
Identifier
54280, 2022-151X
Orbit
SSO
Country
Flag of CNCN / PRC
Related business
Manufacturer
SAST
Mission
Spacecraft
Bus & Motor
Unknown
Mass
Unknown
Launch date (UTC)
2022-11-11 (4 years ago)
Launch vehicle
Unknown
Launch site
Taiyaun Space Center, China (TSC)
Object type
Payload
Rocket body
Debris
Shape & HBR
Unknown shape, 0.1 m
Radar Cross Section
Small (<0.1 m²)

Expand to show TLE details & history
Last TLE update: 12 hours ago

TLE from 12 hours ago
0 CZ-6A DEB
1 54280U 22151X   26207.33608031  .00001844  00000-0  59230-3 0  9990
2 54280  98.6051 232.2498 0079047 273.3837  85.8310 14.38876846193294
Epoch: 2026-07-26T08:03Z
TLE epoch observation values (Epoch: 2026-07-26T08:03:57.338Z)
Latitude
-0.00008°
Longitude
167.22543°
Altitude
761.496 km
Speed
7.476 km/s
True Right ascension
15h 28m 59s
True Declination
0° 00' 00"
Sunlit
Object was in daylight at epoch
Visualization orbit readout
Latitude
Unknown
Longitude
Unknown
Altitude
Unknown
Speed
Unknown
Apparent Right ascension
Unknown
Apparent Declination
Unknown
Sunlit
N/A
Visualization observer readout
Local Sidereal Time
09:25:29
Azimuth
Unknown
Elevation
Unknown
Doppler factor
Unknown
Orbital elements
Apogee altitude
815.759 km
Perigee altitude
702.92 km
Semi-major axis
7,137.477 km
Eccentricity
0.0079
Inclination
98.6051°
RAAN
232.2498°
Arg. of periapsis
273.3837°
True anomaly
86.73503°
Mean anomaly
85.831°
Eccentric anomaly
86.28295°
Mean motion
3.59937 °/min
Orbital period
100.02 mins
BSTAR
0.0005923
Loading maneuver chart data...
Computing Atmospheric mass density...

Documentation

Showing up to 5 results
|